Location: Malanoce
(44.2500°N, 7.4667°E)
Time: 06:03:13
(UTC+00:00)

Resurs 01 Rocket - Pass Details

Date: 17 November 2025
Orbit: 626 x 637 km, 97.7° (Epoch: 09 December)

Event Time Altitude Azimuth Distance (km) Brightness Sun altitude
Exits shadow 18:46:19 12° 346° (NNW) 1,885 4.2 -29.4°
Drops below altitude 10° 18:46:41 10° 346° (NNW) 2,034 4.3 -29.5°
Sets 18:48:53 0° 347° (NNW) 2,947 5.2 -29.9°
